Location: ČR
(50.0000°N, 15.0000°E)
Time: 03:28:30
(UTC+00:00)

Courier 1B Rocket - Pass Details

Date: 03 November 2021
Orbit: 920 x 1202 km, 28.3° (Epoch: 27 November)

Event Time Altitude Azimuth Distance (km) Brightness Sun altitude
Rises 11:58:51 0° 230° (SW) 4,003 9.2 22.7°
Reaches altitude 10° 12:03:59 10° 201° (SSW) 2,977 9.7 22.4°
Maximum altitude 12:06:22 12° 182° (S) 2,810 9.0 22.3°
Drops below altitude 10° 12:08:43 10° 163° (SSE) 2,908 8.4 22.1°
Sets 12:13:34 0° 133° (SE) 3,786 8.3 21.8°
